Time,TemperatureF,DewpointF,PressureIn,WindDirection,WindDirectionDegrees,WindSpeedMPH,WindSpeedGustMPH,Humidity,HourlyPrecipIn,Conditions,Clouds,dailyrainin,SoftwareType,DateUTC
2013-04-22 00:07:00,33.4,28.5,30.48,SSE,157,0.0,-999.0,82,-99.99,,,0.00,Acu-Link.com,2013-04-22 04:07:00,
2013-04-22 00:22:00,32.7,28.1,30.48,ESE,112,0.0,-999.0,83,-99.99,,,0.00,Acu-Link.com,2013-04-22 04:22:00,
2013-04-22 00:38:00,32.5,28.2,30.47,South,180,0.0,-999.0,84,-99.99,,,0.00,Acu-Link.com,2013-04-22 04:38:00,
2013-04-22 00:53:00,32.0,28.3,30.48,SE,135,0.0,-999.0,86,-99.99,,,0.00,Acu-Link.com,2013-04-22 04:53:00,
2013-04-22 01:08:00,32.5,28.5,30.48,SSW,202,0.0,-999.0,85,-99.99,,,0.00,Acu-Link.com,2013-04-22 05:08:00,
2013-04-22 01:24:00,32.0,28.0,30.48,SE,135,0.0,-999.0,85,-99.99,,,0.00,Acu-Link.com,2013-04-22 05:24:00,
2013-04-22 01:39:00,31.8,27.8,30.47,ESE,112,0.0,-999.0,85,-99.99,,,0.00,Acu-Link.com,2013-04-22 05:39:00,
2013-04-22 01:54:00,31.1,27.7,30.47,SW,225,0.0,-999.0,87,-99.99,,,0.00,Acu-Link.com,2013-04-22 05:54:00,
2013-04-22 02:10:00,30.4,27.3,30.47,WNW,292,0.0,-999.0,88,-99.99,,,0.00,Acu-Link.com,2013-04-22 06:10:00,
2013-04-22 02:25:00,31.5,28.6,30.47,South,180,1.7,-999.0,89,-99.99,,,0.00,Acu-Link.com,2013-04-22 06:25:00,
2013-04-22 02:40:00,31.1,28.2,30.47,East,90,0.0,-999.0,89,-99.99,,,0.00,Acu-Link.com,2013-04-22 06:40:00,
2013-04-22 02:56:00,30.9,28.0,30.48,ESE,112,0.0,-999.0,89,-99.99,,,0.00,Acu-Link.com,2013-04-22 06:56:00,
2013-04-22 03:11:00,31.1,28.2,30.46,South,180,0.0,-999.0,89,-99.99,,,0.00,Acu-Link.com,2013-04-22 07:11:00,
2013-04-22 03:26:00,30.6,28.0,30.46,SSW,202,0.0,-999.0,90,-99.99,,,0.00,Acu-Link.com,2013-04-22 07:26:00,
2013-04-22 03:42:00,30.2,27.6,30.46,SSW,202,0.0,-999.0,90,-99.99,,,0.00,Acu-Link.com,2013-04-22 07:42:00,
2013-04-22 03:57:00,29.7,27.1,30.46,NE,45,0.0,-999.0,90,-99.99,,,0.00,Acu-Link.com,2013-04-22 07:57:00,
2013-04-22 04:12:00,29.8,27.2,30.47,SSW,202,0.0,-999.0,90,-99.99,,,0.00,Acu-Link.com,2013-04-22 08:12:00,
2013-04-22 04:27:00,30.2,27.9,30.48,NNW,337,0.0,-999.0,91,-99.99,,,0.00,Acu-Link.com,2013-04-22 08:27:00,
2013-04-22 04:42:00,30.9,28.6,30.47,South,180,0.0,-999.0,91,-99.99,,,0.00,Acu-Link.com,2013-04-22 08:42:00,
2013-04-22 04:58:00,31.3,28.7,30.48,East,90,0.0,-999.0,90,-99.99,,,0.00,Acu-Link.com,2013-04-22 08:58:00,
2013-04-22 05:13:00,30.9,28.6,30.50,NW,315,0.0,-999.0,91,-99.99,,,0.00,Acu-Link.com,2013-04-22 09:13:00,
2013-04-22 05:28:00,30.9,28.6,30.50,SSW,202,0.0,-999.0,91,-99.99,,,0.00,Acu-Link.com,2013-04-22 09:28:00,
2013-04-22 05:44:00,30.9,28.6,30.49,SW,225,0.0,-999.0,91,-99.99,,,0.00,Acu-Link.com,2013-04-22 09:44:00,
2013-04-22 05:59:00,31.3,29.0,30.49,WSW,247,1.7,-999.0,91,-99.99,,,0.00,Acu-Link.com,2013-04-22 09:59:00,
2013-04-22 06:14:00,30.7,28.4,30.49,ESE,112,0.0,-999.0,91,-99.99,,,0.00,Acu-Link.com,2013-04-22 10:14:00,
2013-04-22 06:30:00,30.6,28.6,30.49,NE,45,0.0,-999.0,92,-99.99,,,0.00,Acu-Link.com,2013-04-22 10:30:00,
2013-04-22 06:45:00,31.1,29.1,30.50,NE,45,0.0,-999.0,92,-99.99,,,0.00,Acu-Link.com,2013-04-22 10:45:00,
2013-04-22 07:00:00,33.1,31.0,30.50,East,90,2.2,-999.0,92,-99.99,,,0.00,Acu-Link.com,2013-04-22 11:00:00,
2013-04-22 07:15:00,38.7,31.8,30.50,North,0,2.7,-999.0,76,-99.99,,,0.00,Acu-Link.com,2013-04-22 11:15:00,
2013-04-22 07:31:00,42.3,31.8,30.51,East,90,4.2,-999.0,66,-99.99,,,0.00,Acu-Link.com,2013-04-22 11:31:00,
2013-04-22 07:46:00,45.3,32.7,30.51,ESE,112,6.3,-999.0,61,-99.99,,,0.00,Acu-Link.com,2013-04-22 11:46:00,
2013-04-22 08:01:00,46.4,32.9,30.51,East,90,2.7,-999.0,59,-99.99,,,0.00,Acu-Link.com,2013-04-22 12:01:00,
2013-04-22 08:16:00,45.9,33.2,30.50,NW,315,2.2,-999.0,61,-99.99,,,0.00,Acu-Link.com,2013-04-22 12:16:00,
2013-04-22 08:31:00,47.7,32.8,30.50,ESE,112,1.7,-999.0,56,-99.99,,,0.00,Acu-Link.com,2013-04-22 12:31:00,
2013-04-22 08:47:00,48.0,31.2,30.51,SE,135,5.8,-999.0,52,-99.99,,,0.00,Acu-Link.com,2013-04-22 12:47:00,
2013-04-22 09:02:00,47.8,28.0,30.51,NE,45,4.7,-999.0,46,-99.99,,,0.00,Acu-Link.com,2013-04-22 13:02:00,
2013-04-22 09:17:00,47.8,27.0,30.50,ESE,112,6.8,-999.0,44,-99.99,,,0.00,Acu-Link.com,2013-04-22 13:17:00,
2013-04-22 09:32:00,48.9,28.5,30.51,NNW,337,5.3,-999.0,45,-99.99,,,0.00,Acu-Link.com,2013-04-22 13:32:00,
2013-04-22 09:48:00,49.6,28.6,30.51,SE,135,5.8,-999.0,44,-99.99,,,0.00,Acu-Link.com,2013-04-22 13:48:00,
2013-04-22 10:03:00,50.4,29.9,30.50,SSW,202,1.7,-999.0,45,-99.99,,,0.00,Acu-Link.com,2013-04-22 14:03:00,
2013-04-22 10:18:00,51.3,30.1,30.50,SSE,157,7.8,-999.0,44,-99.99,,,0.00,Acu-Link.com,2013-04-22 14:18:00,
2013-04-22 10:33:00,50.0,27.8,30.50,ENE,67,4.2,-999.0,42,-99.99,,,0.00,Acu-Link.com,2013-04-22 14:33:00,
2013-04-22 10:48:00,50.9,28.6,30.50,NNW,337,4.2,-999.0,42,-99.99,,,0.00,Acu-Link.com,2013-04-22 14:48:00,
2013-04-22 11:04:00,52.2,29.2,30.50,SSE,157,4.2,-999.0,41,-99.99,,,0.00,Acu-Link.com,2013-04-22 15:04:00,
2013-04-22 11:19:00,53.6,29.9,30.48,SSW,202,4.7,-999.0,40,-99.99,,,0.00,Acu-Link.com,2013-04-22 15:19:00,
2013-04-22 11:34:00,54.3,29.9,30.47,East,90,3.2,-999.0,39,-99.99,,,0.00,Acu-Link.com,2013-04-22 15:34:00,
2013-04-22 11:49:00,54.1,27.7,30.47,ESE,112,5.8,-999.0,36,-99.99,,,0.00,Acu-Link.com,2013-04-22 15:49:00,
2013-04-22 12:05:00,54.1,25.6,30.47,SSE,157,5.8,-999.0,33,-99.99,,,0.00,Acu-Link.com,2013-04-22 16:05:00,
2013-04-22 12:20:00,55.2,28.0,30.45,South,180,2.2,-999.0,35,-99.99,,,0.00,Acu-Link.com,2013-04-22 16:20:00,
2013-04-22 12:35:00,54.7,26.9,30.44,SW,225,4.2,-999.0,34,-99.99,,,0.00,Acu-Link.com,2013-04-22 16:35:00,
2013-04-22 12:51:00,56.5,27.8,30.44,WSW,247,6.3,-999.0,33,-99.99,,,0.00,Acu-Link.com,2013-04-22 16:51:00,
2013-04-22 13:06:00,56.8,27.3,30.43,ESE,112,10.9,-999.0,32,-99.99,,,0.00,Acu-Link.com,2013-04-22 17:06:00,
2013-04-22 13:21:00,57.0,25.9,30.42,West,270,3.2,-999.0,30,-99.99,,,0.00,Acu-Link.com,2013-04-22 17:21:00,
2013-04-22 13:36:00,57.2,27.6,30.42,East,90,5.8,-999.0,32,-99.99,,,0.00,Acu-Link.com,2013-04-22 17:36:00,
2013-04-22 13:51:00,59.0,28.4,30.41,West,270,3.7,-999.0,31,-99.99,,,0.00,Acu-Link.com,2013-04-22 17:51:00,
2013-04-22 14:06:00,58.5,26.4,30.40,NNE,22,3.7,-999.0,29,-99.99,,,0.00,Acu-Link.com,2013-04-22 18:06:00,
2013-04-22 14:21:00,58.6,26.4,30.39,WNW,292,3.2,-999.0,29,-99.99,,,0.00,Acu-Link.com,2013-04-22 18:21:00,
2013-04-22 14:37:00,59.0,29.9,30.39,ENE,67,6.3,-999.0,33,-99.99,,,0.00,Acu-Link.com,2013-04-22 18:37:00,
2013-04-22 14:52:00,58.6,28.8,30.38,ESE,112,3.7,-999.0,32,-99.99,,,0.00,Acu-Link.com,2013-04-22 18:52:00,
2013-04-22 15:07:00,59.4,30.3,30.37,ESE,112,5.3,-999.0,33,-99.99,,,0.00,Acu-Link.com,2013-04-22 19:07:00,
2013-04-22 15:23:00,60.1,31.6,30.36,South,180,6.8,-999.0,34,-99.99,,,0.00,Acu-Link.com,2013-04-22 19:23:00,
2013-04-22 15:38:00,59.2,30.1,30.36,SE,135,4.7,-999.0,33,-99.99,,,0.00,Acu-Link.com,2013-04-22 19:38:00,
2013-04-22 15:53:00,59.7,30.6,30.36,ESE,112,6.3,-999.0,33,-99.99,,,0.00,Acu-Link.com,2013-04-22 19:53:00,
2013-04-22 16:08:00,58.5,29.5,30.36,South,180,3.7,-999.0,33,-99.99,,,0.00,Acu-Link.com,2013-04-22 20:08:00,
2013-04-22 16:23:00,60.1,29.4,30.35,ESE,112,6.8,-999.0,31,-99.99,,,0.00,Acu-Link.com,2013-04-22 20:23:00,
2013-04-22 16:38:00,59.0,30.7,30.34,SSW,202,4.2,-999.0,34,-99.99,,,0.00,Acu-Link.com,2013-04-22 20:38:00,
2013-04-22 16:54:00,59.4,30.3,30.33,SE,135,4.7,-999.0,33,-99.99,,,0.00,Acu-Link.com,2013-04-22 20:54:00,
2013-04-22 17:09:00,62.6,31.5,30.35,NE,45,2.7,-999.0,31,-99.99,,,0.00,Acu-Link.com,2013-04-22 21:09:00,
2013-04-22 17:24:00,60.4,30.4,30.34,West,270,2.7,-999.0,32,-99.99,,,0.00,Acu-Link.com,2013-04-22 21:24:00,
2013-04-22 17:39:00,60.4,31.2,30.32,SW,225,4.7,-999.0,33,-99.99,,,0.00,Acu-Link.com,2013-04-22 21:39:00,
2013-04-22 17:55:00,58.8,28.2,30.32,SSW,202,5.8,-999.0,31,-99.99,,,0.00,Acu-Link.com,2013-04-22 21:55:00,
2013-04-22 18:10:00,57.7,28.8,30.32,SE,135,4.7,-999.0,33,-99.99,,,0.00,Acu-Link.com,2013-04-22 22:10:00,
2013-04-22 18:25:00,57.0,28.2,30.32,East,90,4.2,-999.0,33,-99.99,,,0.00,Acu-Link.com,2013-04-22 22:25:00,
2013-04-22 18:40:00,56.8,28.7,30.32,SSE,157,4.2,-999.0,34,-99.99,,,0.00,Acu-Link.com,2013-04-22 22:40:00,
2013-04-22 18:55:00,55.8,28.6,30.32,South,180,3.7,-999.0,35,-99.99,,,0.00,Acu-Link.com,2013-04-22 22:55:00,
2013-04-22 19:10:00,54.9,29.1,30.32,ESE,112,4.7,-999.0,37,-99.99,,,0.00,Acu-Link.com,2013-04-22 23:10:00,
2013-04-22 19:25:00,53.8,29.4,30.32,NE,45,2.7,-999.0,39,-99.99,,,0.00,Acu-Link.com,2013-04-22 23:25:00,
2013-04-22 19:41:00,52.5,29.5,30.33,SSW,202,2.7,-999.0,41,-99.99,,,0.00,Acu-Link.com,2013-04-22 23:41:00,
2013-04-22 19:56:00,51.4,30.2,30.33,South,180,1.7,-999.0,44,-99.99,,,0.00,Acu-Link.com,2013-04-22 23:56:00,
2013-04-22 20:11:00,50.5,30.0,30.33,NW,315,1.1,-999.0,45,-99.99,,,0.00,Acu-Link.com,2013-04-23 00:11:00,
2013-04-22 20:27:00,49.6,30.7,30.33,South,180,3.2,-999.0,48,-99.99,,,0.00,Acu-Link.com,2013-04-23 00:27:00,
2013-04-22 20:42:00,48.9,31.1,30.34,SSE,157,4.2,-999.0,50,-99.99,,,0.00,Acu-Link.com,2013-04-23 00:42:00,
2013-04-22 20:57:00,48.6,31.3,30.35,SSE,157,3.7,-999.0,51,-99.99,,,0.00,Acu-Link.com,2013-04-23 00:57:00,
2013-04-22 21:12:00,47.8,31.5,30.36,SSW,202,2.2,-999.0,53,-99.99,,,0.00,Acu-Link.com,2013-04-23 01:12:00,
2013-04-22 21:28:00,47.7,31.4,30.36,ESE,112,2.7,-999.0,53,-99.99,,,0.00,Acu-Link.com,2013-04-23 01:28:00,
2013-04-22 21:43:00,46.6,31.8,30.37,SSE,157,3.2,-999.0,56,-99.99,,,0.00,Acu-Link.com,2013-04-23 01:43:00,
2013-04-22 21:58:00,46.4,31.6,30.37,South,180,3.7,-999.0,56,-99.99,,,0.00,Acu-Link.com,2013-04-23 01:58:00,
2013-04-22 22:13:00,45.7,31.8,30.37,SSW,202,4.2,-999.0,58,-99.99,,,0.00,Acu-Link.com,2013-04-23 02:13:00,
2013-04-22 22:29:00,45.0,31.5,30.37,WNW,292,0.0,-999.0,59,-99.99,,,0.00,Acu-Link.com,2013-04-23 02:29:00,
2013-04-22 22:44:00,44.1,31.9,30.37,South,180,1.7,-999.0,62,-99.99,,,0.00,Acu-Link.com,2013-04-23 02:44:00,
2013-04-22 22:59:00,43.7,31.9,30.36,East,90,2.2,-999.0,63,-99.99,,,0.00,Acu-Link.com,2013-04-23 02:59:00,
2013-04-22 23:15:00,43.5,31.8,30.37,East,90,1.7,-999.0,63,-99.99,,,0.00,Acu-Link.com,2013-04-23 03:15:00,
2013-04-22 23:30:00,43.3,31.6,30.37,South,180,2.7,-999.0,63,-99.99,,,0.00,Acu-Link.com,2013-04-23 03:30:00,
2013-04-22 23:45:00,43.2,31.1,30.36,South,180,3.7,-999.0,62,-99.99,,,0.00,Acu-Link.com,2013-04-23 03:45:00,